"Pseudo-MPEC" for C259D82

Created 2020 Feb 14 18:07:04 UT using Find_Orb

Click here for an explanation of pseudo-MPECs

 
 Astrometry: 
     C259D82  C2020 02 14.46298 11 38 39.83 +21 29 42.8    ~2EBq 20.9 GVNEOCPG96
     C259D82  C2020 02 14.46813 11 38 39.24 +21 30 19.7    ~2EBq 21.3 GVNEOCPG96
     C259D82  C2020 02 14.47328 11 38 38.65 +21 30 56.9    ~2EBq 20.9 GVNEOCPG96
     C259D82  C2020 02 14.47842 11 38 38.10 +21 31 33.9    ~2EBq 21.1 GVNEOCPG96
     C259D82  C2020 02 14.52128 11 38 33.36 +21 36 42.3    ~2ED7 20.8 GVNEOCPI52
     C259D82  C2020 02 14.52390 11 38 33.08 +21 37 01.9    ~2ED7       VNEOCPI52
     C259D82  C2020 02 14.52652 11 38 32.83 +21 37 20.6    ~2ED7       VNEOCPI52

Station data:
(G96) Mt. Lemmon Survey  (N32.442754 W110.788720)  US/Arizona.  Observers T.
   A. Pruyne, B. M. Africano, E. J. Christensen, G. A. Farneth, D. C. Fuls,
   A. R. Gibbs, A. D. Grauer, H. Gröller, J. A. Johnson, R. A. Kowalski, S.
   M. Larson, G. J. Leonard, D. Rankin, R. L. Seaman, F. C. Shelly. 1.5-m
   reflector + 10K CCD.
(I52) Steward Observatory, Mt. Lemmon Station  (N32.442547 W110.788920)
   US/Arizona.  Observers T. A. Pruyne, B. M. Africano, E. J. Christensen, G.
   A. Farneth, D. C. Fuls, A. R. Gibbs, A. D. Grauer, H. Gröller, J. A.
   Johnson, R. A. Kowalski, S. M. Larson, G. J. Leonard, D. Rankin, R. L.
   Seaman, F. C. Shelly. 1.0-m reflector + CCD.

Orbital elements:  C259D82
   Perihelion 2019 Sep 17.217913 +/- 85 TT =  5:13:47 (JD 2458743.717913)
Epoch 2020 Feb 14.0 TT = JDT 2458893.5   Earth MOID: 0.0871   Ve: 0.0870
M 158.15541579 +/- 130              (J2000 ecliptic)          AutoNEOCP
n   1.05590340 +/- 0.514            Peri.  204.64045 +/- 80
a   0.95510969 +/- 0.31             Node   138.66123 +/- 53
e   0.1477801 +/- 0.257             Incl.   12.16504 +/- 28
P   0.93/340.93d           H 24.7   G  0.15   U 12.3  SR
q 0.81396343 +/- 0.419    Q 1.09625596 +/- 4.86
From 7 observations 2020 Feb. 14 (91.5 min); mean residual 0".22
Residuals in arcseconds: 
200214 G96  .05+  .28+    200214 G96  .21+  .19-    200214 I52  .28+  .19+    
200214 G96  .05-  .06-    200214 I52  .17-  .47-    
200214 G96  .18-  .07-    200214 I52  .15-  .31+    

Ephemerides (geocentric):
Date (UTC) HH   RA              Dec         delta   r     elong  mag " sig PA
---- -- -- --  -------------   -----------  ------ ------ -----  --- ---- ---
2020 02 14 18  11 38 16.738   +22 04 52.20  .11290 1.0891 152.7 21.3  100 148
2020 02 14 19  11 38 13.049   +22 09 55.84  .11290 1.0891 152.8 21.3  114 145
2020 02 14 20  11 38 09.348   +22 14 59.43  .11290 1.0891 152.8 21.3  129 141
2020 02 14 21  11 38 05.635   +22 20 02.97  .11291 1.0891 152.8 21.3  146 137
2020 02 14 22  11 38 01.909   +22 25 06.46  .11291 1.0892 152.8 21.3  165 133
2020 02 14 23  11 37 58.171   +22 30 09.89  .11292 1.0892 152.9 21.3  186 129
2020 02 15 00  11 37 54.420   +22 35 13.27  .11292 1.0892 152.9 21.3  209 124
2020 02 15 01  11 37 50.658   +22 40 16.59  .11292 1.0893 152.9 21.3  236 120
2020 02 15 02  11 37 46.883   +22 45 19.85  .11293 1.0893 152.9 21.3  265 117
2020 02 15 03  11 37 43.095   +22 50 23.04  .11293 1.0893 152.9 21.3  298 114
2020 02 15 04  11 37 39.295   +22 55 26.17  .11294 1.0894 153.0 21.3  334 111
2020 02 15 05  11 37 35.483   +23 00 29.23  .11295 1.0894 153.0 21.3  374 108
2020 02 15 06  11 37 31.659   +23 05 32.22  .11295 1.0894 153.0 21.3  417 106
2020 02 15 07  11 37 27.822   +23 10 35.14  .11296 1.0894 153.0 21.3  463 104
2020 02 15 08  11 37 23.973   +23 15 37.99  .11297 1.0895 153.0 21.3  514 103
2020 02 15 09  11 37 20.111   +23 20 40.76  .11297 1.0895 153.0 21.3  568 101
2020 02 15 10  11 37 16.237   +23 25 43.44  .11298 1.0895 153.1 21.3  627 100
2020 02 15 11  11 37 12.351   +23 30 46.05  .11299 1.0896 153.1 21.3  690  99
2020 02 15 12  11 37 08.452   +23 35 48.58  .11300 1.0896 153.1 21.3  757  98
2020 02 15 13  11 37 04.541   +23 40 51.02  .11301 1.0896 153.1 21.3  830  97
2020 02 15 14  11 37 00.617   +23 45 53.37  .11302 1.0896 153.1 21.3  907  96
2020 02 15 15  11 36 56.682   +23 50 55.63  .11303 1.0897 153.1 21.3  990  96
2020 02 15 16  11 36 52.733   +23 55 57.80  .11304 1.0897 153.1 21.3 1079  95
2020 02 15 17  11 36 48.773   +24 00 59.88  .11305 1.0897 153.2 21.3 1174  94
2020 02 15 18  11 36 44.800   +24 06 01.86  .11306 1.0898 153.2 21.3 1276  94
2020 02 15 19  11 36 40.814   +24 11 03.74  .11307 1.0898 153.2 21.3 1385  93
2020 02 15 20  11 36 36.816   +24 16 05.52  .11308 1.0898 153.2 21.3 1501  93
2020 02 15 21  11 36 32.806   +24 21 07.20  .11309 1.0898 153.2 21.3 1626  92
2020 02 15 22  11 36 28.784   +24 26 08.77  .11310 1.0899 153.2 21.3 1760  92
2020 02 15 23  11 36 24.749   +24 31 10.23  .11311 1.0899 153.2 21.3 1904  91
2020 02 16 00  11 36 20.701   +24 36 11.59  .11312 1.0899 153.2 21.3 2058  91
2020 02 16 01  11 36 16.642   +24 41 12.83  .11314 1.0900 153.3 21.3 2224  91
2020 02 16 02  11 36 12.569   +24 46 13.96  .11315 1.0900 153.3 21.3 2404  90
2020 02 16 03  11 36 08.485   +24 51 14.97  .11316 1.0900 153.3 21.3 2598  90
2020 02 16 04  11 36 04.388   +24 56 15.87  .11318 1.0900 153.3 21.3 2807  90
2020 02 16 05  11 36 00.278   +25 01 16.64  .11319 1.0901 153.3 21.3 3035  89
2020 02 16 06  11 35 56.157   +25 06 17.30  .11321 1.0901 153.3 21.3 3283  89
2020 02 16 07  11 35 52.023   +25 11 17.82  .11322 1.0901 153.3 21.3 3554  89
2020 02 16 08  11 35 47.876   +25 16 18.22  .11323 1.0901 153.3 21.3 3850  89
2020 02 16 09  11 35 43.717   +25 21 18.49  .11325 1.0902 153.3 21.3 4176  88
2020 02 16 10  11 35 39.546   +25 26 18.63  .11327 1.0902 153.3 21.3 4535  88
2020 02 16 11  11 35 35.362   +25 31 18.64  .11328 1.0902 153.3 21.3 4933  88
2020 02 16 12  11 35 31.166   +25 36 18.51  .11330 1.0903 153.3 21.3 5377  88
2020 02 16 13  11 35 26.957   +25 41 18.25  .11331 1.0903 153.3 21.3 5874  87
2020 02 16 14  11 35 22.736   +25 46 17.84  .11333 1.0903 153.3 21.3 6433  87
2020 02 16 15  11 35 18.503   +25 51 17.29  .11335 1.0903 153.3 21.3 7066  87
2020 02 16 16  11 35 14.257   +25 56 16.60  .11337 1.0904 153.4 21.3 7788  87
2020 02 16 17  11 35 09.999   +26 01 15.76  .11338 1.0904 153.4 21.3 8616  86